Jackson, MI

9:22 PM EDT on August 17, 2019 (GMT -0400)
Jackson County-Reynolds

Weather History for KJXN - June, 2019

Change the Weather History Date:

Thursday, June 13, 2019

  Actual Average Record
Temperature  
Mean Temperature 54 °F 67 °F  
Max Temperature 60 °F 78 °F 92 °F (1956)
Min Temperature 48 °F 56 °F 42 °F (1965)
Degree Days  
Heating Degree Days 11 2  
Month to date heating degree days 40 37  
Since 1 June heating degree days 40 37  
Since 1 July heating degree days 6676 6639  
Cooling Degree Days 0 4  
Month to date cooling degree days 17 37  
Year to date cooling degree days 27 74  
Since 1 June cooling degree days 17 37  
Growing Degree Days 5 (Base 50)    
Moisture  
Dew Point 55 °F    
Average Humidity 86    
Maximum Humidity 100    
Minimum Humidity 72    
Precipitation  
Precipitation 0.32 in 0.12 in 1.41 in (1960)
Month to date precipitation 2.93 1.41  
Year to date precipitation 14.94 12.01  
Sea Level Pressure  
Sea Level Pressure 29.71 in    
Wind  
Wind Speed 7 mph (WNW)    
Max Wind Speed 20 mph    
Max Gust Speed 30 mph    
Visibility 8 miles    
Events Rain , Thunderstorm    
T = Trace of Precipitation, MM = Missing Value Source: NWS Daily Summary

Daily Weather History Graph

Daily Weather History Graph

Search for Another Location

Airport or City:

Astronomy

Jun. 13, 2019 Rise Set
Actual Time 6:00 AM EDT 9:15 PM EDT
Civil Twilight 5:26 AM EDT 9:49 PM EDT
Nautical Twilight 4:41 AM EDT 10:34 PM EDT
Astronomical Twilight 3:47 AM EDT 11:28 PM EDT
Moon 5:24 PM EDT (6/13) 3:51 AM EDT (6/13)
Length of Visible Light 16h 23m
Length of Day
15h 14m
Waxing Gibbous, 85% of the Moon is Illuminated
Jun 13
Waxing Gibbous
Jun 17
Full
Jun 25
Last Quarter
Jul 2
New
Jul 9
First Quarter

Hourly Weather History & Observations

Time (EDT) Temp. Dew Point Humidity Pressure Visibility Wind Dir Wind Speed Gust Speed Precip Events Conditions
12:33 AM 59.0 °F 57.0 °F 93% 29.74 in 10.0 mi NE 4.6 mph - 0.02 in Thunderstorm Overcast
12:48 AM 59.0 °F 57.0 °F 93% 29.73 in 4.0 mi ENE 6.9 mph - 0.04 in Rain Light Rain
12:56 AM 59.0 °F 57.0 °F 93% 29.71 in 5.0 mi NE 5.8 mph - 0.05 in Rain Light Rain
1:52 AM 57.2 °F 57.2 °F 100% 29.72 in 3.0 mi West 3.5 mph - 0.05 in Rain , Thunderstorm Rain
1:54 AM 57.2 °F 57.2 °F 100% 29.72 in 2.5 mi Calm Calm - 0.06 in Rain , Thunderstorm Thunderstorms and Rain
1:56 AM 57.9 °F 57.0 °F 97% 29.72 in 2.0 mi Calm Calm - 0.07 in Rain , Thunderstorm Thunderstorms and Rain
2:09 AM 57.9 °F 57.0 °F 97% 29.71 in 5.0 mi NNW 4.6 mph - 0.01 in Rain , Thunderstorm Light Rain
2:18 AM 57.9 °F 57.0 °F 97% 29.71 in 6.0 mi WNW 5.8 mph - 0.02 in Rain Light Rain
2:24 AM 57.9 °F 57.0 °F 97% 29.71 in 9.0 mi WNW 5.8 mph - 0.02 in Rain , Thunderstorm Light Rain
2:45 AM 57.9 °F 57.0 °F 97% 29.70 in 9.0 mi NW 8.1 mph - 0.02 in   Overcast
2:56 AM 57.9 °F 57.0 °F 97% 29.69 in 9.0 mi NNW 5.8 mph - 0.02 in   Overcast
3:06 AM 57.9 °F 57.0 °F 97% 29.70 in 8.0 mi NNW 4.6 mph - N/A   Overcast
3:24 AM 57.9 °F 57.0 °F 97% 29.69 in 8.0 mi NNW 4.6 mph - N/A   Overcast
3:56 AM 57.9 °F 55.9 °F 93% 29.68 in 8.0 mi Calm Calm - N/A   Mostly Cloudy
4:02 AM 57.9 °F 57.0 °F 97% 29.69 in 8.0 mi West 4.6 mph - N/A   Mostly Cloudy
4:15 AM 57.0 °F 55.9 °F 96% 29.68 in 8.0 mi West 5.8 mph - N/A   Overcast
4:27 AM 57.0 °F 55.9 °F 96% 29.68 in 8.0 mi WNW 5.8 mph - N/A   Overcast
4:42 AM 57.0 °F 55.0 °F 93% 29.67 in 10.0 mi NW 8.1 mph - N/A   Mostly Cloudy
4:56 AM 55.9 °F 54.0 °F 93% 29.66 in 10.0 mi NNW 4.6 mph - N/A   Mostly Cloudy
5:56 AM 55.0 °F 54.0 °F 96% 29.65 in 10.0 mi Calm Calm - N/A   Overcast
6:42 AM 55.9 °F 55.0 °F 97% 29.66 in 8.0 mi Calm Calm - N/A   Overcast
6:52 AM 57.2 °F 55.4 °F 94% 29.66 in 8.0 mi Calm Calm - N/A   Overcast
6:56 AM 55.9 °F 55.9 °F 100% 29.65 in 8.0 mi Calm Calm - N/A   Overcast
7:05 AM 57.0 °F 55.9 °F 96% 29.66 in 8.0 mi Calm Calm - N/A   Overcast
7:56 AM 57.0 °F 55.9 °F 96% 29.65 in 6.0 mi South 3.5 mph - 0.01 in   Overcast
8:06 AM 57.0 °F 55.9 °F 96% 29.66 in 5.0 mi Calm Calm - N/A   Overcast
8:31 AM 57.0 °F 55.9 °F 96% 29.66 in 8.0 mi South 4.6 mph - N/A   Overcast
8:56 AM 57.0 °F 55.9 °F 96% 29.66 in 7.0 mi SSW 5.8 mph - N/A   Overcast
9:29 AM 57.0 °F 55.9 °F 96% 29.66 in 9.0 mi SSW 4.6 mph - N/A   Overcast
9:44 AM 57.0 °F 55.9 °F 96% 29.66 in 10.0 mi South 4.6 mph - N/A   Overcast
9:56 AM 57.9 °F 55.9 °F 93% 29.65 in 8.0 mi South 5.8 mph - N/A   Overcast
10:56 AM 57.9 °F 55.9 °F 93% 29.65 in 10.0 mi SSW 8.1 mph - 0.00 in   Overcast
11:56 AM 55.9 °F 54.0 °F 93% 29.66 in 5.0 mi WNW 10.4 mph - 0.02 in Rain Light Rain
12:03 PM 55.0 °F 53.1 °F 93% 29.67 in 2.0 mi West 11.5 mph - 0.04 in Rain Heavy Rain
12:11 PM 55.0 °F 54.0 °F 96% 29.67 in 2.0 mi WNW 8.1 mph 18.4 mph 0.06 in Rain Rain
12:24 PM 55.9 °F 55.0 °F 97% 29.67 in 3.0 mi NNW 8.1 mph - 0.08 in Rain Light Rain
12:56 PM 57.0 °F 54.0 °F 89% 29.67 in 10.0 mi NNW 10.4 mph 17.3 mph 0.09 in Rain Light Rain
1:46 PM 57.9 °F 55.0 °F 90% 29.68 in 9.0 mi NW 8.1 mph - 0.02 in Rain Light Rain
1:56 PM 59.0 °F 55.9 °F 90% 29.68 in 10.0 mi NW 8.1 mph - 0.02 in Rain Light Rain
2:56 PM 60.1 °F 55.0 °F 83% 29.69 in 10.0 mi NW 11.5 mph 18.4 mph 0.00 in   Overcast
3:35 PM 57.9 °F 54.0 °F 87% 29.71 in 10.0 mi WNW 10.4 mph 26.5 mph 0.00 in Rain Light Rain
3:43 PM 57.0 °F 53.1 °F 87% 29.71 in 10.0 mi WNW 15.0 mph 25.3 mph 0.00 in Rain Light Rain
3:56 PM 57.9 °F 54.0 °F 87% 29.71 in 10.0 mi WNW 11.5 mph 21.9 mph 0.00 in   Overcast
4:11 PM 57.9 °F 55.0 °F 90% 29.72 in 10.0 mi WNW 9.2 mph 20.7 mph 0.01 in Rain Light Rain
4:27 PM 57.9 °F 55.0 °F 90% 29.72 in 10.0 mi WNW 12.7 mph 23.0 mph 0.01 in Rain Light Rain
4:56 PM 55.9 °F 53.1 °F 90% 29.75 in 7.0 mi WNW 12.7 mph 25.3 mph 0.04 in Rain Light Rain
5:18 PM 55.9 °F 53.1 °F 90% 29.76 in 10.0 mi NW 15.0 mph 27.6 mph 0.00 in   Overcast
5:56 PM 55.9 °F 53.1 °F 90% 29.79 in 9.0 mi WNW 11.5 mph 21.9 mph 0.01 in Rain Light Rain
6:56 PM 55.9 °F 52.0 °F 87% 29.82 in 9.0 mi WNW 8.1 mph - 0.03 in   Overcast
7:56 PM 57.0 °F 52.0 °F 83% 29.84 in 10.0 mi WNW 5.8 mph - 0.01 in   Overcast
8:56 PM 55.9 °F 51.1 °F 84% 29.86 in 10.0 mi West 6.9 mph - N/A   Clear
9:56 PM 55.0 °F 46.9 °F 74% 29.89 in 10.0 mi West 10.4 mph - N/A   Clear
10:56 PM 50.0 °F 44.1 °F 80% 29.93 in 10.0 mi WSW 4.6 mph - N/A   Clear
11:56 PM 50.0 °F 42.1 °F 74% 29.94 in 10.0 mi WSW 6.9 mph - N/A   Partly Cloudy